Hourly Weather Gogoliha

Today, 17 May, Monday

Time Temperature Precipitation Wind Pressure Humidity
00:00 +12°C° 0 mm 1 mps 744 mmHg 92%
01:00 +12°C° 0 mm 1 mps 744 mmHg 92%
02:00 +12°C° 0 mm 1 mps 744 mmHg 92%
03:00 +12°C° 0 mm 1 mps 744 mmHg 91%
04:00 +13°C° 0 mm 1 mps 745 mmHg 90%
05:00 +14°C° 0 mm 1 mps 745 mmHg 89%
06:00 +15°C° 0 mm 2 mps 745 mmHg 83%
07:00 +17°C° 0 mm 2 mps 745 mmHg 76%
08:00 +19°C° 0 mm 2 mps 745 mmHg 69%
09:00 +21°C° 0 mm 3 mps 745 mmHg 63%
10:00 +22°C° 0 mm 3 mps 745 mmHg 57%
11:00 +24°C° 0 mm 3 mps 745 mmHg 50%
12:00 +25°C° 0 mm 4 mps 744 mmHg 49%
13:00 +25°C° 0 mm 4 mps 744 mmHg 48%
14:00 +26°C° 0 mm 4 mps 743 mmHg 47%
15:00 +25°C° 0 mm 4 mps 743 mmHg 52%
16:00 +25°C° 0 mm 4 mps 743 mmHg 56%
17:00 +25°C° 0 mm 4 mps 742 mmHg 61%
18:00 +22°C° 0.3 mm 4 mps 742 mmHg 70%
19:00 +21°C° 0.3 mm 4 mps 742 mmHg 80%
20:00 +19°C° 0.3 mm 4 mps 742 mmHg 89%
21:00 +18°C° 0.1 mm 4 mps 742 mmHg 91%
22:00 +18°C° 0.1 mm 4 mps 741 mmHg 93%
23:00 +18°C° 0.1 mm 4 mps 741 mmHg 94%

Tomorrow, 18 May, Tuesday

Time Temperature Precipitation Wind Pressure Humidity
00:00 +17°C° 0 mm 3 mps 741 mmHg 94%
01:00 +17°C° 0 mm 3 mps 741 mmHg 94%
02:00 +16°C° 0 mm 3 mps 741 mmHg 94%
03:00 +16°C° 0 mm 3 mps 741 mmHg 93%
04:00 +16°C° 0 mm 3 mps 741 mmHg 91%
05:00 +15°C° 0 mm 4 mps 741 mmHg 89%
06:00 +18°C° 0 mm 4 mps 741 mmHg 81%
07:00 +20°C° 0 mm 4 mps 741 mmHg 72%
08:00 +22°C° 0 mm 5 mps 741 mmHg 64%
09:00 +23°C° 0 mm 5 mps 741 mmHg 57%
10:00 +26°C° 0 mm 5 mps 741 mmHg 51%
11:00 +27°C° 0 mm 5 mps 741 mmHg 44%
12:00 +28°C° 0 mm 5 mps 741 mmHg 43%
13:00 +28°C° 0 mm 5 mps 741 mmHg 42%
14:00 +29°C° 0 mm 5 mps 741 mmHg 41%
15:00 +28°C° 0 mm 5 mps 740 mmHg 43%
16:00 +27°C° 0 mm 5 mps 740 mmHg 45%
17:00 +27°C° 0 mm 5 mps 740 mmHg 47%
18:00 +25°C° 0 mm 4 mps 740 mmHg 53%
19:00 +22°C° 0 mm 4 mps 740 mmHg 58%
20:00 +20°C° 0 mm 4 mps 740 mmHg 64%
21:00 +20°C° 0 mm 4 mps 740 mmHg 66%
22:00 +19°C° 0 mm 4 mps 740 mmHg 67%
23:00 +19°C° 0 mm 4 mps 740 mmHg 69%

Day after tomorrow, 19 May, Wednesday

Time Temperature Precipitation Wind Pressure Humidity
00:00 +18°C° 0 mm 4 mps 740 mmHg 74%
01:00 +18°C° 0 mm 3 mps 740 mmHg 79%
02:00 +17°C° 0 mm 3 mps 740 mmHg 84%
03:00 +17°C° 0 mm 3 mps 740 mmHg 84%
04:00 +17°C° 0 mm 3 mps 740 mmHg 85%
05:00 +17°C° 0 mm 3 mps 740 mmHg 86%
06:00 +19°C° 0 mm 3 mps 740 mmHg 78%
07:00 +21°C° 0 mm 4 mps 740 mmHg 71%
08:00 +22°C° 0 mm 4 mps 740 mmHg 63%
09:00 +23°C° 0 mm 4 mps 740 mmHg 57%
10:00 +26°C° 0 mm 5 mps 741 mmHg 52%
11:00 +27°C° 0 mm 5 mps 741 mmHg 46%
12:00 +26°C° 0 mm 5 mps 741 mmHg 48%
13:00 +25°C° 0 mm 4 mps 741 mmHg 50%
14:00 +25°C° 0 mm 4 mps 741 mmHg 51%
15:00 +25°C° 0 mm 4 mps 741 mmHg 52%
16:00 +25°C° 0 mm 4 mps 740 mmHg 52%
17:00 +25°C° 0 mm 4 mps 740 mmHg 53%
18:00 +22°C° 0.1 mm 4 mps 740 mmHg 63%
19:00 +20°C° 0.1 mm 3 mps 740 mmHg 73%
20:00 +18°C° 0.1 mm 2 mps 741 mmHg 84%
21:00 +18°C° 0.1 mm 1 mps 741 mmHg 86%
22:00 +18°C° 0.1 mm 1 mps 741 mmHg 88%
23:00 +16°C° 0.1 mm 1 mps 741 mmHg 91%

20 May, Thursday

Time Temperature Precipitation Wind Pressure Humidity
00:00 +16°C° 0.4 mm 1 mps 741 mmHg 92%
01:00 +16°C° 0.4 mm 1 mps 741 mmHg 93%
02:00 +16°C° 0.4 mm 1 mps 741 mmHg 94%
03:00 +16°C° 0.8 mm 1 mps 740 mmHg 95%
04:00 +16°C° 0.8 mm 1 mps 740 mmHg 96%
05:00 +16°C° 0.8 mm 1 mps 740 mmHg 97%
06:00 +17°C° 0.2 mm 2 mps 740 mmHg 93%
07:00 +18°C° 0.2 mm 3 mps 740 mmHg 90%
08:00 +20°C° 0.2 mm 3 mps 740 mmHg 87%
09:00 +21°C° 0 mm 4 mps 739 mmHg 77%
10:00 +23°C° 0 mm 5 mps 739 mmHg 68%
11:00 +25°C° 0 mm 5 mps 739 mmHg 58%
12:00 +23°C° 0.6 mm 6 mps 738 mmHg 64%
13:00 +23°C° 0.6 mm 6 mps 738 mmHg 70%
14:00 +22°C° 0.6 mm 6 mps 738 mmHg 76%
15:00 +21°C° 0.5 mm 6 mps 738 mmHg 79%
16:00 +20°C° 0.5 mm 6 mps 738 mmHg 82%
17:00 +19°C° 0.5 mm 6 mps 737 mmHg 85%
18:00 +17°C° 0 mm 5 mps 738 mmHg 87%
19:00 +17°C° 0 mm 4 mps 738 mmHg 88%
20:00 +15°C° 0 mm 4 mps 738 mmHg 89%
21:00 +14°C° 0 mm 4 mps 738 mmHg 91%
22:00 +14°C° 0 mm 4 mps 738 mmHg 92%
23:00 +13°C° 0 mm 4 mps 738 mmHg 94%

21 May, Friday

Time Temperature Precipitation Wind Pressure Humidity
00:00 +13°C° 0 mm 4 mps 738 mmHg 92%
01:00 +13°C° 0 mm 5 mps 738 mmHg 90%
02:00 +13°C° 0 mm 5 mps 738 mmHg 88%
03:00 +12°C° 0 mm 5 mps 738 mmHg 88%
04:00 +12°C° 0 mm 4 mps 738 mmHg 88%
05:00 +12°C° 0 mm 4 mps 738 mmHg 88%
06:00 +12°C° 0.1 mm 4 mps 738 mmHg 88%
07:00 +12°C° 0.1 mm 4 mps 738 mmHg 88%
08:00 +13°C° 0.1 mm 5 mps 738 mmHg 88%
09:00 +13°C° 0.4 mm 5 mps 737 mmHg 90%
10:00 +13°C° 0.4 mm 5 mps 737 mmHg 92%
11:00 +13°C° 0.4 mm 5 mps 737 mmHg 93%
12:00 +13°C° 0.8 mm 5 mps 737 mmHg 89%
13:00 +13°C° 0.8 mm 5 mps 737 mmHg 85%
14:00 +14°C° 0.8 mm 6 mps 737 mmHg 81%
15:00 +13°C° 0.2 mm 6 mps 737 mmHg 79%
16:00 +12°C° 0.2 mm 5 mps 737 mmHg 78%
17:00 +10°C° 0.2 mm 5 mps 737 mmHg 77%
18:00 +9°C° 0.1 mm 5 mps 737 mmHg 81%
19:00 +8°C° 0.1 mm 4 mps 737 mmHg 86%
20:00 +7°C° 0.1 mm 4 mps 736 mmHg 90%
21:00 +7°C° 0.2 mm 5 mps 737 mmHg 91%
22:00 +7°C° 0.2 mm 5 mps 737 mmHg 92%
23:00 +7°C° 0.2 mm 6 mps 737 mmHg 92%

22 May, Saturday

Time Temperature Precipitation Wind Pressure Humidity
00:00 +7°C° 0.1 mm 6 mps 738 mmHg 92%
01:00 +7°C° 0.1 mm 6 mps 738 mmHg 92%
02:00 +7°C° 0.1 mm 6 mps 739 mmHg 91%
03:00 +7°C° 0 mm 6 mps 739 mmHg 91%
04:00 +7°C° 0 mm 6 mps 740 mmHg 90%
05:00 +7°C° 0 mm 6 mps 740 mmHg 89%
06:00 +8°C° 0 mm 6 mps 741 mmHg 85%
07:00 +8°C° 0 mm 6 mps 741 mmHg 82%
08:00 +8°C° 0 mm 5 mps 742 mmHg 78%
09:00 +9°C° 0 mm 5 mps 742 mmHg 73%
10:00 +10°C° 0 mm 5 mps 742 mmHg 68%
11:00 +12°C° 0 mm 5 mps 743 mmHg 63%
12:00 +13°C° 0 mm 5 mps 743 mmHg 56%
13:00 +14°C° 0 mm 5 mps 743 mmHg 49%
14:00 +15°C° 0 mm 5 mps 743 mmHg 42%
15:00 +15°C° 0 mm 4 mps 744 mmHg 44%
16:00 +15°C° 0 mm 4 mps 744 mmHg 47%
17:00 +14°C° 0 mm 4 mps 744 mmHg 50%
18:00 +13°C° 0 mm 4 mps 744 mmHg 56%
19:00 +11°C° 0 mm 3 mps 745 mmHg 62%
20:00 +9°C° 0 mm 2 mps 745 mmHg 69%
21:00 +8°C° 0 mm 2 mps 746 mmHg 74%
22:00 +7°C° 0 mm 2 mps 746 mmHg 79%
23:00 +6°C° 0 mm 2 mps 746 mmHg 84%
Show more